Weather History for KCBE - October, 2013

Change the Weather History Date:

Wednesday, October 23, 2013

  Actual Average (KMRB) Record (KMRB)
Temperature  
Mean Temperature 42 °F 52 °F  
Max Temperature 46 °F 63 °F 88 °F (1947)
Min Temperature 37 °F 40 °F 23 °F (1969)
Degree Days  
Heating Degree Days 24 14  
Month to date heating degree days 236  
Since 1 July heating degree days 327  
Cooling Degree Days 0 0  
Month to date cooling degree days 8  
Year to date cooling degree days 893  
Moisture  
Dew Point 36 °F    
Average Humidity 79    
Maximum Humidity 93    
Minimum Humidity 61    
Precipitation  
Precipitation 0.00 in 0.10 in 1.82 in (1983)
Month to date precipitation 2.27  
Year to date precipitation 32.08  
Sea Level Pressure  
Sea Level Pressure 29.85 in    
Wind  
Wind Speed 2 mph (WNW)    
Max Wind Speed 13 mph    
Max Gust Speed 20 mph    
Visibility 10 miles    
Events      
T = Trace of Precipitation, MM = Missing Value Source: NWS Daily Summary

Daily Weather History Graph

Daily Weather History Graph

Search for Another Location

Airport or City:

Trip Planner

Search our weather history database for the weather conditions in past years. The results will help you decide how hot, cold, wet, or windy it might be!

Date:

Astronomy

Oct. 23, 2013 Rise Set
Actual Time 7:33 AM EDT 6:24 PM EDT
Civil Twilight 7:06 AM EDT 6:51 PM EDT
Nautical Twilight 6:34 AM EDT 7:23 PM EDT
Astronomical Twilight 6:03 AM EDT 7:54 PM EDT
Moon 9:54 PM EDT (10/23) 11:48 AM EDT (10/23)
Length of Visible Light 11h 45m
Length of Day
10h 50m
Waning Gibbous, 79% of the Moon is Illuminated
Oct 23
Waning Gibbous
Oct 26
Last Quarter
Nov 3
New
Nov 10
First Quarter
Nov 17
Full

Hourly Weather History & Observations

Time (EDT) Temp. Windchill Dew Point Humidity Pressure Visibility Wind Dir Wind Speed Gust Speed Precip Events Conditions
12:08 AM 41.0 °F 39.0 °F 32.0 °F 70% 29.90 in 10.0 mi North 3.5 mph - N/A   Clear
12:28 AM 42.8 °F 41.1 °F 32.0 °F 66% 29.89 in 10.0 mi North 3.5 mph - N/A   Clear
12:48 AM 41.0 °F - 32.0 °F 70% 29.89 in 10.0 mi Calm Calm - N/A   Clear
1:08 AM 41.0 °F - 32.0 °F 70% 29.89 in 10.0 mi Calm Calm - N/A   Clear
1:28 AM 37.4 °F - 33.8 °F 87% 29.89 in 10.0 mi Calm Calm - N/A   Clear
1:48 AM 39.2 °F - 33.8 °F 81% 29.89 in 10.0 mi Calm Calm - N/A   Clear
2:08 AM 37.4 °F - 33.8 °F 87% 29.88 in 10.0 mi Calm Calm - N/A   Clear
2:28 AM 37.4 °F - 33.8 °F 87% 29.87 in 10.0 mi Calm Calm - N/A   Clear
2:48 AM 37.4 °F - 33.8 °F 87% 29.87 in 10.0 mi Calm Calm - N/A   Clear
3:08 AM 37.4 °F - 33.8 °F 87% 29.86 in 10.0 mi Calm Calm - N/A   Clear
3:28 AM 37.4 °F - 33.8 °F 87% 29.85 in 10.0 mi Calm Calm - N/A   Clear
3:48 AM 37.4 °F - 35.6 °F 93% 29.85 in 10.0 mi Calm Calm - N/A   Clear
4:08 AM 37.4 °F - 35.6 °F 93% 29.84 in 10.0 mi Calm Calm - N/A   Clear
4:28 AM 37.4 °F - 35.6 °F 93% 29.85 in 10.0 mi Calm Calm - N/A   Clear
4:48 AM 37.4 °F - 35.6 °F 93% 29.84 in 10.0 mi Calm Calm - N/A   Scattered Clouds
5:08 AM 37.4 °F - 35.6 °F 93% 29.84 in 10.0 mi Calm Calm - N/A   Scattered Clouds
5:28 AM 37.4 °F - 35.6 °F 93% 29.83 in 10.0 mi Calm Calm - N/A   Clear
5:48 AM 37.4 °F - 35.6 °F 93% 29.83 in 10.0 mi Calm Calm - N/A   Clear
6:08 AM 37.4 °F - 35.6 °F 93% 29.83 in 10.0 mi Calm Calm - N/A   Scattered Clouds
6:29 AM 37.4 °F - 35.6 °F 93% 29.82 in 10.0 mi Calm Calm - N/A   Scattered Clouds
6:49 AM 37.4 °F - 35.6 °F 93% 29.82 in 10.0 mi Calm Calm - N/A   Mostly Cloudy
7:09 AM 37.4 °F - 35.6 °F 93% 29.82 in 10.0 mi Calm Calm - N/A   Overcast
7:29 AM 37.4 °F - 35.6 °F 93% 29.82 in 10.0 mi Calm Calm - N/A   Overcast
7:49 AM 37.4 °F - 35.6 °F 93% 29.82 in 10.0 mi Calm Calm - N/A   Scattered Clouds
8:09 AM 39.2 °F - 37.4 °F 93% 29.82 in 10.0 mi Calm Calm - N/A   Scattered Clouds
8:29 AM 39.2 °F - 37.4 °F 93% 29.82 in 10.0 mi Calm Calm - N/A   Scattered Clouds
8:49 AM 39.2 °F - 37.4 °F 93% 29.82 in 10.0 mi Calm Calm - N/A   Clear
9:09 AM 41.0 °F 39.0 °F 37.4 °F 87% 29.82 in 10.0 mi North 3.5 mph - N/A   Mostly Cloudy
9:29 AM 41.0 °F - 37.4 °F 87% 29.82 in 7.0 mi Calm Calm - N/A   Overcast
9:49 AM 41.0 °F 39.0 °F 37.4 °F 87% 29.81 in 10.0 mi NNW 3.5 mph - N/A   Overcast
10:09 AM 42.8 °F 41.1 °F 37.4 °F 81% 29.81 in 10.0 mi NW 3.5 mph - N/A   Overcast
10:29 AM 42.8 °F - 37.4 °F 81% 29.81 in 10.0 mi Calm Calm - N/A   Overcast
10:49 AM 42.8 °F 39.3 °F 37.4 °F 81% 29.81 in 10.0 mi WNW 5.8 mph - N/A   Overcast
11:09 AM 42.8 °F 41.1 °F 37.4 °F 81% 29.81 in 10.0 mi NW 3.5 mph - N/A   Mostly Cloudy
11:29 AM 42.8 °F - 37.4 °F 81% 29.82 in 7.0 mi Calm Calm - N/A   Overcast
11:49 AM 42.8 °F - 37.4 °F 81% 29.81 in 7.0 mi Calm Calm - N/A   Overcast
12:09 PM 44.6 °F - 37.4 °F 76% 29.81 in 7.0 mi Calm Calm - N/A   Overcast
12:29 PM 44.6 °F 43.1 °F 37.4 °F 76% 29.80 in 10.0 mi SSE 3.5 mph - N/A   Overcast
12:49 PM 44.6 °F 43.1 °F 37.4 °F 76% 29.79 in 10.0 mi SW 3.5 mph - N/A   Scattered Clouds
1:09 PM 44.6 °F - 37.4 °F 76% 29.78 in 10.0 mi Calm Calm - N/A   Mostly Cloudy
1:29 PM 44.6 °F 43.1 °F 37.4 °F 76% 29.77 in 10.0 mi SSE 3.5 mph - N/A   Overcast
1:49 PM 44.6 °F - 37.4 °F 76% 29.77 in 10.0 mi Calm Calm - N/A   Overcast
2:09 PM 44.6 °F 43.1 °F 37.4 °F 76% 29.77 in 10.0 mi South 3.5 mph - N/A   Overcast
2:29 PM 44.6 °F - 39.2 °F 81% 29.77 in 10.0 mi Calm Calm - N/A   Mostly Cloudy
2:49 PM 46.4 °F - 37.4 °F 71% 29.77 in 10.0 mi Calm Calm - N/A   Mostly Cloudy
3:10 PM 46.4 °F - 39.2 °F 76% 29.77 in 10.0 mi Calm Calm - N/A   Mostly Cloudy
3:30 PM 46.4 °F - 39.2 °F 76% 29.78 in 10.0 mi Calm Calm - N/A   Mostly Cloudy
3:50 PM 46.4 °F - 39.2 °F 76% 29.79 in 10.0 mi Calm Calm - N/A   Overcast
4:10 PM 46.4 °F - 41.0 °F 81% 29.80 in 10.0 mi Calm Calm - N/A   Overcast
4:30 PM 46.4 °F - 41.0 °F 81% 29.80 in 10.0 mi Calm Calm - N/A   Mostly Cloudy
4:50 PM 46.4 °F 42.4 °F 37.4 °F 71% 29.81 in 10.0 mi NNW 8.1 mph - N/A   Mostly Cloudy
5:10 PM 46.4 °F 42.4 °F 35.6 °F 66% 29.82 in 10.0 mi NW 8.1 mph - N/A   Mostly Cloudy
5:30 PM 46.4 °F 44.3 °F 35.6 °F 66% 29.82 in 10.0 mi WNW 4.6 mph - N/A   Scattered Clouds
5:50 PM 46.4 °F 44.3 °F 35.6 °F 66% 29.83 in 10.0 mi WNW 4.6 mph - N/A   Scattered Clouds
6:10 PM 46.4 °F 41.5 °F 35.6 °F 66% 29.84 in 10.0 mi WNW 10.4 mph 16.1 mph N/A   Scattered Clouds
6:30 PM 44.6 °F 38.8 °F 35.6 °F 71% 29.86 in 10.0 mi WNW 11.5 mph 19.6 mph N/A   Scattered Clouds
6:50 PM 44.6 °F 39.7 °F 33.8 °F 66% 29.87 in 10.0 mi WNW 9.2 mph - N/A   Mostly Cloudy
7:10 PM 44.6 °F 40.7 °F 33.8 °F 66% 29.88 in 10.0 mi West 6.9 mph - N/A   Mostly Cloudy
7:30 PM 44.6 °F 38.8 °F 35.6 °F 71% 29.89 in 10.0 mi WNW 11.5 mph 18.4 mph N/A   Mostly Cloudy
7:50 PM 44.6 °F 43.1 °F 35.6 °F 71% 29.90 in 10.0 mi NNW 3.5 mph - N/A   Mostly Cloudy
8:10 PM 44.6 °F 38.8 °F 33.8 °F 66% 29.91 in 10.0 mi WNW 11.5 mph - N/A   Scattered Clouds
8:30 PM 44.6 °F 38.4 °F 32.0 °F 61% 29.92 in 10.0 mi NNW 12.7 mph 17.3 mph N/A   Scattered Clouds
8:50 PM 42.8 °F 37.0 °F 32.0 °F 66% 29.92 in 10.0 mi NW 10.4 mph - N/A   Scattered Clouds
9:10 PM 42.8 °F 37.5 °F 33.8 °F 70% 29.93 in 10.0 mi WNW 9.2 mph 17.3 mph N/A   Scattered Clouds
9:30 PM 42.8 °F 38.6 °F 33.8 °F 70% 29.94 in 10.0 mi NW 6.9 mph - N/A   Scattered Clouds
9:50 PM 42.8 °F 39.3 °F 33.8 °F 70% 29.94 in 10.0 mi WNW 5.8 mph 17.3 mph N/A   Mostly Cloudy
10:10 PM 42.8 °F 38.0 °F 33.8 °F 70% 29.95 in 10.0 mi West 8.1 mph 17.3 mph N/A   Scattered Clouds
10:30 PM 42.8 °F 38.0 °F 33.8 °F 70% 29.95 in 10.0 mi West 8.1 mph - N/A   Scattered Clouds
10:50 PM 42.8 °F 38.0 °F 32.0 °F 66% 29.96 in 10.0 mi West 8.1 mph - N/A   Scattered Clouds
11:10 PM 42.8 °F 38.6 °F 32.0 °F 66% 29.97 in 10.0 mi West 6.9 mph - N/A   Scattered Clouds
11:30 PM 42.8 °F 37.5 °F 32.0 °F 66% 29.97 in 10.0 mi West 9.2 mph - N/A   Clear
11:50 PM 42.8 °F 39.3 °F 32.0 °F 66% 29.97 in 10.0 mi West 5.8 mph - N/A   Clear